Charlevoix, MI

11:34 PM EDT on March 27, 2017 (GMT -0400)
Charlevoix Municipal

Weather History for KCVX - July, 2012

Change the Weather History Date:

Thursday, July 5, 2012

  Actual Average Record
Temperature  
Mean Temperature 78 °F -  
Max Temperature 86 °F 73 °F 86 °F (2012)
Min Temperature 70 °F 55 °F 51 °F (2004)
Cooling Degree Days 13    
Growing Degree Days 28 (Base 50)    
Moisture  
Dew Point 68 °F    
Average Humidity 76    
Maximum Humidity 92    
Minimum Humidity 60    
Precipitation  
Precipitation 0.00 in - - ()
Sea Level Pressure  
Sea Level Pressure 29.89 in    
Wind  
Wind Speed 5 mph (SSW)    
Max Wind Speed 15 mph    
Max Gust Speed 22 mph    
Visibility 10 miles    
Events Rain    
Averages and records for this station are not official NWS values.
T = Trace of Precipitation, MM = Missing Value Source: NWS Daily Summary

Daily Weather History Graph

Daily Weather History Graph

Search for Another Location

Airport or City:

Trip Planner

Search our weather history database for the weather conditions in past years. The results will help you decide how hot, cold, wet, or windy it might be!

Date:

Astronomy

Jul. 05, 2012 Rise Set
Actual Time 5:59 AM EDT 9:31 PM EDT
Civil Twilight 5:22 AM EDT 10:08 PM EDT
Nautical Twilight 4:33 AM EDT 10:57 PM EDT
Astronomical Twilight 3:29 AM EDT 12:01 AM EDT
Moon 10:37 PM EDT (7/5) 8:18 AM EDT (7/5)
Length of Visible Light 16h 45m
Length of Day
15h 31m
Waning Gibbous, 95% of the Moon is Illuminated
Jul 5
Waning Gibbous
Jul 10
Last Quarter
Jul 19
New
Jul 26
First Quarter
Aug 1
Full

Hourly Weather History & Observations

Time (EDT) Temp. Heat Index Dew Point Humidity Pressure Visibility Wind Dir Wind Speed Gust Speed Precip Events Conditions
12:35 AM 75.0 °F - 67.3 °F 77% 29.91 in 10.0 mi Calm Calm - N/A   Clear
12:54 AM 73.6 °F - 67.1 °F 80% 29.89 in 10.0 mi SSE 5.8 mph - N/A   Clear
1:14 AM 74.3 °F - 66.9 °F 78% 29.88 in 10.0 mi SSE 3.5 mph - N/A   Clear
1:34 AM 73.8 °F - 66.6 °F 78% 29.83 in 10.0 mi SE 10.4 mph - N/A   Scattered Clouds
1:54 AM 73.9 °F - 65.7 °F 75% 29.81 in 10.0 mi SSE 11.5 mph - N/A   Scattered Clouds
2:15 AM 74.7 °F - 65.3 °F 73% 29.80 in 10.0 mi SE 9.2 mph - N/A   Clear
2:34 AM 74.5 °F - 64.8 °F 72% 29.82 in 10.0 mi South 4.6 mph - N/A   Clear
2:54 AM 75.4 °F - 64.2 °F 68% 29.83 in 10.0 mi South 8.1 mph - N/A   Clear
3:15 AM 76.5 °F - 63.5 °F 64% 29.83 in 10.0 mi SSE 5.8 mph - N/A   Clear
3:34 AM 76.5 °F - 63.5 °F 64% 29.84 in 10.0 mi ESE 4.6 mph - N/A   Clear
3:54 AM 76.1 °F - 63.9 °F 66% 29.85 in 10.0 mi Calm Calm - N/A   Clear
4:15 AM 75.4 °F - 64.2 °F 68% 29.86 in 10.0 mi Calm Calm - N/A   Clear
4:34 AM 73.4 °F - 64.8 °F 74% 29.86 in 10.0 mi Calm Calm - N/A   Clear
4:54 AM 73.9 °F - 64.4 °F 72% 29.86 in 10.0 mi Calm Calm - N/A   Clear
5:14 AM 72.0 °F - 64.9 °F 78% 29.86 in 10.0 mi Calm Calm - N/A   Clear
5:34 AM 72.3 °F - 65.1 °F 78% 29.87 in 10.0 mi NNW 3.5 mph - N/A   Clear
5:54 AM 71.8 °F - 66.4 °F 83% 29.87 in 10.0 mi Calm Calm - N/A   Mostly Cloudy
6:14 AM 71.1 °F - 66.6 °F 86% 29.87 in 10.0 mi West 4.6 mph - N/A   Mostly Cloudy
6:35 AM 71.2 °F - 67.5 °F 88% 29.87 in 10.0 mi West 3.5 mph - N/A   Mostly Cloudy
6:54 AM 71.6 °F - 67.3 °F 86% 29.88 in 10.0 mi SW 3.5 mph - N/A   Scattered Clouds
7:14 AM 70.9 °F - 68.4 °F 92% 29.89 in 10.0 mi West 3.5 mph - N/A   Scattered Clouds
7:35 AM 70.5 °F - 67.5 °F 90% 29.93 in 10.0 mi North 12.7 mph 21.9 mph N/A   Mostly Cloudy
7:54 AM 71.1 °F - 67.6 °F 89% 29.94 in 5.0 mi NNE 13.8 mph 19.6 mph N/A Rain Heavy Rain
8:14 AM 71.6 °F - 67.1 °F 86% 29.94 in 10.0 mi ENE 5.8 mph - N/A   Mostly Cloudy
8:34 AM 71.1 °F - 67.6 °F 89% 29.92 in 1.5 mi East 10.4 mph - N/A Rain Heavy Rain
8:54 AM 71.1 °F - 68.0 °F 90% 29.93 in 10.0 mi ESE 3.5 mph - N/A   Mostly Cloudy
9:14 AM 71.2 °F - 68.0 °F 89% 29.93 in 10.0 mi SE 6.9 mph - N/A   Mostly Cloudy
9:34 AM 71.4 °F - 68.4 °F 90% 29.92 in 10.0 mi South 5.8 mph - N/A   Scattered Clouds
9:54 AM 73.6 °F - 69.3 °F 86% 29.92 in 10.0 mi SSE 9.2 mph - N/A   Scattered Clouds
10:15 AM 76.1 °F - 70.0 °F 81% 29.92 in 10.0 mi South 9.2 mph - N/A   Scattered Clouds
10:34 AM 76.1 °F - 70.2 °F 82% 29.92 in 10.0 mi South 4.6 mph - N/A   Scattered Clouds
10:54 AM 76.6 °F - 70.5 °F 81% 29.92 in 10.0 mi South 3.5 mph - N/A   Clear
11:15 AM 78.6 °F - 69.8 °F 74% 29.91 in 10.0 mi South 5.8 mph - N/A   Clear
11:34 AM 80.6 °F 83.9 °F 70.0 °F 70% 29.91 in 10.0 mi SSW 5.8 mph - N/A   Clear
11:54 AM 81.5 °F 84.8 °F 69.1 °F 66% 29.91 in 10.0 mi SW 6.9 mph - N/A   Clear
12:34 PM 82.8 °F 86.7 °F 69.8 °F 65% 29.91 in 10.0 mi SW 9.2 mph - N/A   Clear
12:54 PM 82.6 °F 86.1 °F 69.3 °F 64% 29.91 in 10.0 mi SSW 8.1 mph - N/A   Clear
1:14 PM 83.3 °F 87.6 °F 70.3 °F 65% 29.90 in 10.0 mi South 8.1 mph - N/A   Clear
1:34 PM 83.5 °F 87.4 °F 69.6 °F 63% 29.89 in 10.0 mi SSW 9.2 mph - N/A   Clear
1:54 PM 84.6 °F 89.4 °F 70.7 °F 63% 29.89 in 10.0 mi South 6.9 mph - N/A   Clear
2:14 PM 86.0 °F 91.5 °F 71.1 °F 61% 29.88 in 10.0 mi South 8.1 mph - N/A   Clear
2:34 PM 86.4 °F 91.8 °F 71.1 °F 60% 29.88 in 10.0 mi SW 8.1 mph - N/A   Clear
2:54 PM 86.4 °F 92.2 °F 71.6 °F 61% 29.88 in 10.0 mi West 15.0 mph - N/A   Clear
3:14 PM 82.8 °F 87.2 °F 70.9 °F 67% 29.89 in 10.0 mi West 13.8 mph - N/A   Clear
3:34 PM 83.5 °F 88.2 °F 70.9 °F 66% 29.89 in 10.0 mi West 13.8 mph - N/A   Clear
3:55 PM 81.0 °F 84.6 °F 70.3 °F 70% 29.89 in 10.0 mi West 11.5 mph - N/A   Clear
4:14 PM 81.5 °F 85.3 °F 70.5 °F 69% 29.89 in 10.0 mi WSW 10.4 mph - N/A   Clear
4:34 PM 81.5 °F 85.3 °F 70.5 °F 69% 29.88 in 10.0 mi West 12.7 mph - N/A   Clear
5:14 PM 80.6 °F 83.8 °F 69.6 °F 69% 29.89 in 10.0 mi West 11.5 mph - N/A   Clear
5:34 PM 80.4 °F 83.6 °F 70.0 °F 70% 29.89 in 10.0 mi West 10.4 mph - N/A   Clear
5:55 PM 80.1 °F 83.0 °F 69.4 °F 70% 29.89 in 10.0 mi WSW 11.5 mph - N/A   Clear
6:14 PM 80.6 °F 83.8 °F 69.4 °F 69% 29.89 in 10.0 mi WSW 9.2 mph - N/A   Clear
6:34 PM 80.8 °F 83.9 °F 69.4 °F 68% 29.89 in 10.0 mi WSW 9.2 mph - N/A   Clear
6:54 PM 80.6 °F 83.8 °F 69.4 °F 69% 29.88 in 10.0 mi WSW 8.1 mph - N/A   Scattered Clouds
7:14 PM 80.8 °F 83.9 °F 69.4 °F 68% 29.88 in 10.0 mi WSW 5.8 mph - N/A   Scattered Clouds
7:34 PM 81.5 °F 84.8 °F 69.1 °F 66% 29.88 in 10.0 mi WSW 5.8 mph - N/A   Scattered Clouds
7:54 PM 81.5 °F 84.6 °F 68.5 °F 65% 29.88 in 10.0 mi SW 3.5 mph - N/A   Scattered Clouds
8:14 PM 81.0 °F 83.9 °F 68.7 °F 66% 29.89 in 10.0 mi Calm Calm - N/A   Clear
8:34 PM 79.0 °F - 68.2 °F 69% 29.89 in 10.0 mi NNW 3.5 mph - N/A   Scattered Clouds
8:54 PM 75.7 °F - 68.4 °F 78% 29.89 in 10.0 mi Calm Calm - N/A   Scattered Clouds
9:14 PM 74.7 °F - 68.2 °F 80% 29.89 in 10.0 mi Calm Calm - N/A   Clear
9:35 PM 73.4 °F - 68.2 °F 84% 29.89 in 10.0 mi Calm Calm - N/A   Clear
9:54 PM 73.0 °F - 68.4 °F 85% 29.89 in 10.0 mi Calm Calm - N/A   Clear
10:14 PM 72.5 °F - 68.5 °F 87% 29.91 in 10.0 mi Calm Calm - N/A   Clear
10:35 PM 71.6 °F - 67.8 °F 88% 29.92 in 10.0 mi Calm Calm - N/A   Clear
10:54 PM 71.2 °F - 68.4 °F 91% 29.92 in 10.0 mi Calm Calm - N/A   Clear
11:14 PM 71.6 °F - 68.9 °F 91% 29.92 in 10.0 mi Calm Calm - N/A   Clear
11:35 PM 71.2 °F - 68.4 °F 91% 29.92 in 10.0 mi Calm Calm - N/A   Clear
11:54 PM 71.4 °F - 68.4 °F 90% 29.93 in 10.0 mi Calm Calm - N/A   Clear